DELTA 1 DEB, 17768

Orbit data source: Space-Track

DELTA 1 DEB, 17768 is space debris in SSO originally from a launch on Sun, 05 Mar 1978 UTC launched from the Air Force Western Test Range (AFWTR). Debris objects in space refer to the collection of defunct objects orbiting the Earth. Examples of debris include non-operational satellites, rocket bodies, and fragments generated from explosions, collisions, or faulty payload assembly.

Loading next visibility...
Identifier
17768, 1978-026HA
Orbit
SSO
Country
Flag of USUS
Related business
Manufacturer
Unknown
Mission
Spacecraft
Bus & Motor
Unknown
Mass
Unknown
Launch date (UTC)
1978-03-05 (48 years ago)
Launch vehicle
Unknown
Launch site
Air Force Western Test Range (AFWTR)
Object type
Payload
Rocket body
Debris
Shape & HBR
Unknown shape, 0.1 m
Radar Cross Section
Medium (>0.1 m² and <1 m²)

Expand to show TLE details & history
Last TLE update: 3 days ago

TLE from 3 days ago
0 DELTA 1 DEB
1 17768U 78026HA  26171.01456738  .00000706  00000-0  21115-3 0  9999
2 17768  98.6025 189.0705 0076738  86.9262 303.5670 14.44366572322750
Epoch: 2026-06-20T00:20Z
TLE epoch observation values (Epoch: 2026-06-20T00:20:58.621Z)
Latitude
29.43912°
Longitude
-89.28044°
Altitude
717.864 km
Speed
7.515 km/s
True Right ascension
12h 16m 47s
True Declination
29° 17' 29"
Sunlit
Object was in daylight at epoch
Visualization orbit readout
Latitude
Unknown
Longitude
Unknown
Altitude
Unknown
Speed
Unknown
Apparent Right ascension
Unknown
Apparent Declination
Unknown
Sunlit
N/A
Visualization observer readout
Local Sidereal Time
01:45:26
Azimuth
Unknown
Elevation
Unknown
Doppler factor
Unknown
Orbital elements
Apogee altitude
795.861 km
Perigee altitude
686.596 km
Semi-major axis
7,119.365 km
Eccentricity
0.00767
Inclination
98.6025°
RAAN
189.0705°
Arg. of periapsis
86.9262°
True anomaly
302.8304°
Mean anomaly
303.567°
Eccentric anomaly
303.19909°
Mean motion
3.61311 °/min
Orbital period
99.64 mins
BSTAR
0.00021115
Loading maneuver chart data...
Computing Atmospheric mass density...

Documentation

Showing up to 5 results
|